Regional Weather Roundup
Issued by NWS

Home | Current Version | Previous Version | Text Only | Print | Product List | Glossary On
Versions: 1 2 3 4 5 6 7 8 9 10 11 12 13 14 15 16 17 18 19 20 21 22 23 24 25 26 27 28 29 30 31 32 33 34 35 36 37 38 39 40 41 42 43 44 45 46 47 48 49 50
000
ASHW40 PHFO 042310
RWRHI

WEATHER ROUNDUP FOR HAWAII
NATIONAL WEATHER SERVICE HONOLULU HI
100 PM HST FRI SEP 04 2015

THIS IS AN AUTOMATED REPORT THAT HAS NOT BEEN QUALITY CONTROLLED.

NOTE..."FAIR" INDICATES FEW OR NO CLOUDS BELOW 12,000 FEET WITH NO
SIGNIFICANT WEATHER AND/OR OBSTRUCTIONS TO VISIBILITY.

* - THESE SITES REPORT LIMITED FIELDS

HIZ001>004-050000-
KAUAI-NIIHAU-

CITY           SKY/WX    TMP DP  RH WIND       PRES   REMARKS
LIHUE APT      MOSUNNY   85  75  72 E9        29.86F HX  93
PORT ALLEN*    NOT AVBL
POIPU*           N/A     90 N/A N/A E2G9        N/A
PRINCEVILLE*     N/A     82 N/A N/A MISG        N/A
KOKOLE POINT*  NOT AVBL
MOLOAA DAIRY*    N/A     86  75  70 E10         N/A  HX  95
WAIMEA HTS*    NOT AVBL
PUU OPAE*      NOT AVBL
PUU LUA*       NOT AVBL
MAKAHA RIDGE*  NOT AVBL
$$

HIZ005>011-050000-
OAHU-

CITY           SKY/WX    TMP DP  RH WIND       PRES   REMARKS
HONOLULU       PTSUNNY   87  75  67 SE17G24   29.83F THUNDER HX  96
KALAELOA       MOSUNNY   86  74  67 SE14G21   29.85F HX  94
KANEOHE MCB    MOSUNNY   86  76  71 NE12G20   29.83F HX  96
WHEELER FIELD  LGT RAIN  75  73  94 NW7       29.87R
BELLOWS*       NOT AVBL
KAHUKU*        NOT AVBL
WHEELER*       NOT AVBL
WAIANAE HARBOR NOT AVBL
DILLINGHAM*      N/A     72  64  78 MISG        N/A
KAHUKU TRN*      N/A     79  73  83 E7G18       N/A
KAWAILOA*        N/A     75  72  88 NE7G18      N/A
KII*             N/A     82  77  83 E12G17      N/A  HX  91
MAKUA RANGE*     N/A     81  73  78 SE3G10      N/A
OAHU FOREST NW NOT AVBL
SCHOFIELD BRK*   N/A     70  66  88 MISG        N/A
SCHOFIELD S*   NOT AVBL
WAIANAE VLY*   NOT AVBL
KUAOKALA*      NOT AVBL
HONOULIUULI*   NOT AVBL
MOKUOLOE IS*     N/A    N/A N/A N/A MISG        N/A
PALEHUA*       NOT AVBL
WAIAWA PHB*    NOT AVBL
$$

HIZ012>013-050000-
MOLOKAI-

CITY           SKY/WX    TMP DP  RH WIND       PRES   REMARKS
MOLOKAI AIRPT  MOSUNNY   85  73  67 NE8       29.86F HX  91
KALAUPAPA      NOT AVBL
MAKAPULAPAI*   NOT AVBL
MOLOKAI 1*     NOT AVBL
PUU ALII*      NOT AVBL
$$

HIZ016-050000-
KAHOOLAWE-

CITY           SKY/WX    TMP DP  RH WIND       PRES   REMARKS
KAHOOLAWE*     NOT AVBL
HAKIOAWA*      NOT AVBL
HONOKANAIA*      N/A     88  74  63 NE16G28   29.79F HX  97
KANELOA*         N/A     82  72  69 E18G28    29.93
KEALIALALO*    NOT AVBL
LUA MAKIKA*    NOT AVBL
$$

HIZ014>015-050000-
LANAI-

CITY           SKY/WX    TMP DP  RH WIND       PRES   REMARKS
LANAI CITY     CLOUDY    78  72  81 NW5       29.91F
LANAI 1*       NOT AVBL
$$

HIZ017>028-050000-
MAUI-

CITY           SKY/WX    TMP DP  RH WIND       PRES   REMARKS
KAHULUI        MOSUNNY   90  71  53 NE20      29.83F HX  96
KAPALUA-W MAUI MOSUNNY   88  72  58 NE17G25   29.84F HX  94
HANA AIRPORT   CLOUDY    84  73  70 NE8       29.88S HX  91
HANA*          NOT AVBL
HALEAKALA SUMM   N/A     57  46  67 SE3G17      N/A
MAALAEA BAY*   NOT AVBL
HALEAKALA*     NOT AVBL
KAUPO GAP*     NOT AVBL
KULA 1*          N/A     67  61  81 NW5G12      N/A
$$

HIZ023>026-050000-
BIG ISLAND OF HAWAII COAST AND LOWER SLOPES-

CITY           SKY/WX    TMP DP  RH WIND       PRES   REMARKS
KAILUA KONA    MOSUNNY   89  75  63 W13       29.81F HX  99
HILO           PTSUNNY   85  74  69 N8        29.84F HX  92
HONOKAA*       NOT AVBL
KAWAIHAE MWT*  NOT AVBL
KAWAIHAE*        N/A     84 N/A N/A SW6         N/A
SOUTH POINT*   NOT AVBL
UPOLU AIRPORT* NOT AVBL
KAMUELA*       NOT AVBL
HAKALAU*         N/A     69  62  78 NE7         N/A
KALOKO-HONOKO* NOT AVBL
PALI 2*          N/A     75  68  78 S10G18      N/A
KEALAKOMO*       N/A     73  57  56 E16G24      N/A
KAUPULEHU*     NOT AVBL
KAPAPALA*        N/A     77  72  85 SE5G12      N/A
LOWER KAHUKU*  NOT AVBL
PUHE CS*       NOT AVBL
PUHO CS*       NOT AVBL
PTA KEAMUKU*     N/A     79  66  65 CALM        N/A
WAIKOLOA*      NOT AVBL
$$

HIZ027>028-050000-
BIG ISLAND OF HAWAII INTERIOR AND SUMMMITS-

CITY           SKY/WX    TMP DP  RH WIND       PRES   REMARKS
BRADSHAW FIELD MOSUNNY   70  62  73 W10       30.21F
MK VISITOR CEN   N/A     55  50  82 SW3         N/A
MAUNA KEA*       N/A     43  37  81 SE5G18      N/A
MAUNA LOA*       N/A     50  45  81 MISG        N/A
MAUNA LOA 1*   NOT AVBL
PTA KIPUKA*      N/A     73  59  60 NW7G13      N/A
PTA RANGE 17*    N/A     72  61  68 NW12G18     N/A
PTA WEST*        N/A     75  66  73 NW12G17     N/A
NENE CABIN*    NOT AVBL
AHUMOA*        NOT AVBL
PTA PORTABLE*  NOT AVBL
PUU MALI*        N/A     68  63  83 NW5G10      N/A
$$

HIC003-050000-
NORTHWEST ISLANDS-

CITY           SKY/WX    TMP DP  RH WIND       PRES   REMARKS
MIDWAY ISLAND  SUNNY     82  75  78 CALM      29.92F HAZE
MIDWAY NOS*    NOT AVBL
FRENCH FRIGATE NOT AVBL
$$

PHZ110>124-180-050000-
BUOY REPORTS

STATION/POSITION TIME  TEMP    WIND        PRES    WAVE   SWELL
                       AIR SEA DIR/SP/G            HT/PER HT/DIR
                 (UTC) (F)     (DEG/KT/KT) (MB)    (FT/S) (FT/D)
BUOY 51001       2243   80 83   70/  6/ 10 1011.3    9/14   8/ 90
BUOY 51101       2300   78 83   60/ 10/ 14 1010.8F   9/15   8/100
BUOY 51100       NOT AVBL
BUOY 51002       2300   83 85   80/ 10/ 12 1009.8F   9/14   8/100
BUOY 51003       2300   82 85  100/  6/ 10 1010.0F   8/14   8/ 70
BUOY 51004       2241   82 83   10/ 14/ 17 1008.9F  12/14  11/ 80
BARBERS PT BUOY  NOT AVBL
WAIMEA BAY BUOY  2300      83                N/A     5/ 9
KAILUA BAY BUOY  2300      84                N/A     6/11   3/ 80
LANAI BUOY       NOT AVBL
BARBERS PT 2     2300      84                N/A     5/18   3/180
PAUWELA MAUI     2300      82                N/A     9/13   7/100
HILO             NOT AVBL
KANEOHE BAY BUOY 2300      83                N/A     7/13   3/ 80
HANALEI KAUAI    2300      84                N/A     7/13   5/ 90
KAHULUI HARBOR   2300   83 83   60/ 14/ 20 1010.4F
HONOLULU HARBOR  2300   87 83  120/  5/ 10 1010.6F
KILO NALU        NOT AVBL
HILO HARBOR      2300   84 81   30/  6/  8 1010.4F
MOKUOLOE         2300      86              1011.2S
NAWILIWILI       2300   84 84  100/  7/  9 1011.0F
WHOTS BUOY       NOT AVBL
BUOY 51028       NOT AVBL
$$

......................KEY........................................
  SKY/WX - SKY CONDITIONS/PRESENT WEATHER
  TMP    - TEMPERATURE IN FAHRENHEIT
  DWPT   - DEWPOINT IN FAHRENHEIT
  RH     - RELATIVE HUMIDITY IN PERCENT
  WIND   - DIRECTION AND SPEED /MPH FOR ISLANDS...KTS FOR BUOYS/
  PRES   - MEAN SEA LEVEL PRESSURE IN INCHES OF HG
  VSB    - VISIBILITY IN MILES
  HX     - HEAT INDEX
  WCI    - WIND CHILL INDEX
  VRB    - VARIABLE WIND DIRECTION
  N/A    - NOT AVAILABLE



USA.gov is the U.S. government's official web portal to all federal, state and local government web resources and services.